Flag for West Bank Weather past 2 weeks in Nablus, West Bank

Now
79 °F

Sunny.


Feels Like: 81 °F
Forecast: 67 / 86 °F
Wind: 5 mph from South

Location: Ben Gurion International Airport

Current Time: Jul 23, 2014 at 7:45:29 AM

Latest Report: Jul 23, 2014 at 7:20 AM


Visibility: 10 mi

Pressure: 29.80 "Hg

Humidity: 74%

Dew point: 70 °F

Location of NablusLocation

Historic Weather in Nablus — Graph

°F

Nablus temperature yesterday

Maximum temperature yesterday: 88 °F (at 11:20 AM)
Minimum temperature yesterday: 73 °F (at 4:50 AM)
Average temperature yesterday: 81 °F

Past Weeks' High & Low Weather Summary

 TemperatureHumidityPressure
High95 °F (Jul 12, 3:20 PM)83% (Jul 8, 6:20 AM)29.89 "Hg (Jul 8, 6:20 AM)
Low72 °F (Jul 10, 5:20 AM)34% (Jul 12, 3:20 PM)29.74 "Hg (Jul 8, 3:50 PM)
Average81 °F64%29.80 "Hg
* Reported Jul 8 6:20 AM — Jul 23 6:20 AM, Nablus, Weather by CustomWeather, © 2014

Note: Actual official high and low records may vary slightly from our data, if they occured in-between our weather recording intervals... More about our weather records

Advertising

Nablus weather history for previous 24 hours

 ConditionsComfort  
Time TempWeatherWind HumidityBarometerVisibility
6:20 AM
Jul 23
75 °FPassing clouds.6 mph78%29.80 "HgN/A
5:50 AM75 °FPassing clouds.7 mph78%29.80 "HgN/A
5:20 AM75 °FPassing clouds.7 mph78%29.80 "HgN/A
4:50 AM75 °FPassing clouds.6 mph78%29.80 "HgN/A
4:20 AM75 °FPassing clouds.1 mph78%29.80 "HgN/A
3:50 AM75 °FPassing clouds.5 mph78%29.80 "HgN/A
3:20 AM75 °FPassing clouds.5 mph78%29.77 "HgN/A
2:50 AM75 °FPassing clouds.3 mph83%29.77 "HgN/A
7:50 PM
Jul 22
81 °FSunny.7 mph70%29.77 "Hg10 mi
7:20 PM82 °FSunny.7 mph66%29.77 "Hg10 mi
6:50 PM84 °FSunny.7 mph62%29.77 "Hg10 mi
6:20 PM84 °FPassing clouds.10 mph62%29.77 "HgN/A
5:50 PM84 °FPassing clouds.12 mph62%29.77 "HgN/A
5:20 PM86 °FPassing clouds.10 mph59%29.77 "HgN/A
4:50 PM86 °FPassing clouds.14 mph59%29.77 "HgN/A
4:20 PM86 °FPassing clouds.14 mph59%29.77 "HgN/A
3:50 PM86 °FPassing clouds.13 mph59%29.77 "HgN/A
3:20 PM86 °FPassing clouds.13 mph59%29.77 "HgN/A
2:50 PM86 °FPassing clouds.13 mph59%29.77 "HgN/A
2:20 PM86 °FScattered clouds.14 mph62%29.77 "HgN/A
1:50 PM86 °FScattered clouds.13 mph59%29.80 "HgN/A
1:20 PM88 °FScattered clouds.12 mph59%29.77 "HgN/A
12:50 PM86 °FScattered clouds.13 mph59%29.77 "HgN/A
12:20 PM86 °FPartly sunny.12 mph59%29.77 "HgN/A
11:50 AM86 °FScattered clouds.9 mph55%29.77 "HgN/A
11:20 AM88 °FPartly sunny.6 mph55%29.77 "HgN/A
10:50 AM86 °FPartly sunny.6 mph55%29.80 "HgN/A
10:20 AM84 °FPartly sunny.6 mph58%29.80 "HgN/A
9:50 AM84 °FPartly sunny.7 mph58%29.80 "HgN/A
9:20 AM82 °FPartly sunny.6 mph66%29.80 "HgN/A
8:50 AM82 °FPartly sunny.7 mph66%29.80 "HgN/A
8:20 AM81 °FPassing clouds.6 mph66%29.80 "HgN/A
7:50 AM79 °FPassing clouds.7 mph70%29.77 "HgN/A
7:20 AM77 °FPassing clouds.7 mph74%29.77 "HgN/A
Weather by CustomWeather, © 2014

See weather overviewHow to use our weather pages